PROGRESS-M 15M 1 38222U 12015A 12135.56154573 .00010795 00000-0 15817-3 0 341 2 38222 51.6405 290.5443 0010436 315.0173 162.6015 15.56091359772776 YAHSAT 1B 1 38245U 12016A 12136.58527788 .00000117 00000-0 10000-3 0 179 2 38245 0.0651 258.0656 0000592 276.3035 317.5944 1.00271773 326 BREEZE-M DEB [TANK] 1 38246U 12016B 12135.63036009 .00001931 00000-0 55474-3 0 197 2 38246 49.5700 179.7704 5171028 6.3665 358.3301 5.30419837 1098 BREEZE-M R/B 1 38247U 12016C 12135.54572630 -.00000148 00000-0 00000-0 0 128 2 38247 24.1693 192.6494 6130433 9.7460 358.2783 2.19985189 448 RISAT 1 1 38248U 12017A 12137.13481035 .00001069 00000-0 71915-4 0 764 2 38248 97.5917 142.0625 0013501 255.7911 192.3881 15.08819798 3040 PSLV R/B 1 38249U 12017B 12137.22937703 .00005571 00000-0 23617-3 0 287 2 38249 97.5309 142.2268 0047156 142.4794 217.9747 15.22523558 3075 BEIDOU M3 1 38250U 12018A 12137.23609296 .00000055 00000-0 10000-3 0 312 2 38250 55.1647 116.8377 0024263 186.5048 253.6910 1.86239211 470 BEIDOU M4 1 38251U 12018B 12136.71224331 .00000058 00000-0 10000-3 0 300 2 38251 55.0945 116.3988 0024725 178.9652 316.9330 1.86164213 460 CZ-3B R/B 1 38252U 12018C 12136.91481750 .00081431 00000-0 35733-2 0 205 2 38252 55.0439 110.5421 6170932 177.4405 188.8743 3.84908477 580 CZ-3B DEB 1 38253U 12018D 12136.21988204 .00387135 -33915-6 17862-2 0 172 2 38253 55.0551 110.7075 6143929 177.4190 188.4735 3.94028304 490 TIANHUI 1-02 1 38256U 12020A 12137.21721760 .00002256 00000-0 10000-3 0 382 2 38256 97.3622 256.7066 0011137 279.9732 172.3745 15.22593875 1512 YAOGAN 14 1 38257U 12021A 12137.23929135 .00000108 00000-0 62247-5 0 265 2 38257 97.2360 267.8421 0004819 197.1865 255.8849 15.29954128 910 TIANTUO 1 1 38258U 12021B 12137.17539626 .00008499 00000-0 27784-3 0 223 2 38258 97.2380 267.7884 0002522 277.5232 205.2935 15.31956874 902 CZ-4B R/B 1 38259U 12021C 12136.54832322 .00033788 00000-0 37271-3 0 123 2 38259 97.1715 267.3048 0106551 357.5171 2.5541 15.56160626 821 CZ-4B DEB 1 38260U 12021D 12136.30024194 .00031152 00000-0 20487-2 0 87 2 38260 97.2902 266.6766 0194230 123.3503 238.5996 14.93271793 755 CZ-4B DEB 1 38261U 12021E 12135.31836743 .00044943 00000-0 22073-2 0 73 2 38261 97.3782 265.8881 0141018 110.2067 251.3042 15.09520773 611 TIANHUI 1-02 DEB 1 38269U 12020B 12134.56407469 .00012350 00000-0 14317-2 0 29 2 38269 97.4167 253.5734 0224251 142.1945 219.8756 14.69093476 899 TIANHUI 1-02 DEB 1 38270U 12020C 12133.28778682 .00011843 00000-0 14279-2 0 19 2 38270 97.3144 252.3341 0246067 145.1241 216.6370 14.64664880 702 SOYUZ-TMA 04M 1 38291U 12022A 12137.24804192 .00150247 21294-4 21893-3 0 116 2 38291 51.6372 282.4350 0028834 184.4971 236.1118 16.03946929 182 SL-4 R/B 1 38292U 12022B 12137.40747231 .02969437 12179-4 53838-3 0 112 2 38292 51.6517 281.4714 0013425 83.0599 277.5738 16.31357495 213 2012-023A 1 38331U 12023A 12136.73247170 -.00000504 00000-0 00000+0 0 46 2 38331 1.9951 32.2171 7276027 177.2410 190.9239 2.27738903 08 2012-023B 1 38332U 12023B 12137.16623850 -.00000489 00000-0 00000+0 0 28 2 38332 1.9975 32.1721 7275520 177.4159 187.0441 2.27963155 05 2012-023C 1 38333U 12023C 12137.16725789 -.00000480 00000-0 00000+0 0 24 2 38333 1.5458 57.7256 7266398 151.8328 187.4122 2.29406418 07 2012-023D 1 38334U 12023D 12137.16515879 -.00000489 00000-0 00000+0 0 21 2 38334 1.9925 32.2658 7274049 177.3200 186.1159 2.28160644 02